This demonstration page uses our WeatherBlox Daily Observations layout. Learn more.

Left ArrowRight Arrow

40.92945, -100.16068

Hourly Observations for February 14, 2020

Temp ( °F °C ) Dew Point ( °F °C ) Humidity (%) Winds ( mph kmh ) Pressure ( in mb ) Visibility ( mi km ) Precip ( " mm )
12:15 am 00:15 Clear 13 -10.6 7 -14.1 76 76 S 12 19 30.50 1033 10 16 N/A
12:35 am 00:35 Clear 12 -11.1 6 -14.4 77 77 S 10 17 30.49 1033 10 16 N/A
12:55 am 00:55 Clear 12 -11.2 6 -14.2 79 79 S 10 17 30.50 1033 10 16 N/A
1:15 am 01:15 Clear 12 -11.2 7 -14 80 80 S 9 15 30.49 1032 10 16 N/A
1:35 am 01:35 Clear 12 -11.2 7 -13.7 82 82 S 12 19 30.48 1032 10 16 N/A
1:55 am 01:55 Clear 12 -11 8 -13.5 82 82 S 14 22 30.47 1032 10 16 N/A
2:15 am 02:15 Clear 12 -11 8 -13.5 82 82 S 13 20 30.46 1032 10 16 N/A
2:35 am 02:35 Clear 12 -11 8 -13.5 82 82 S 12 19 30.46 1032 10 16 N/A
2:55 am 02:55 Clear 12 -11 8 -13.5 82 82 S 12 19 30.45 1031 10 16 N/A
3:15 am 03:15 Clear 12 -11 8 -13.5 82 82 S 10 17 30.44 1031 10 16 N/A
3:35 am 03:35 Clear 12 -11 8 -13.5 82 82 S 12 19 30.43 1031 10 16 N/A
3:55 am 03:55 Clear 12 -11 8 -13.5 82 82 SSE 12 19 30.42 1030 10 16 N/A
4:15 am 04:15 Clear 12 -11.2 7 -13.7 82 82 S 12 19 30.41 1030 10 16 N/A
4:35 am 04:35 Clear 11 -11.5 7 -13.7 84 84 S 8 13 30.42 1030 10 16 N/A
4:55 am 04:55 Clear 12 -11.2 8 -13.6 83 83 S 12 19 30.40 1030 10 16 N/A
5:15 am 05:15 Clear 12 -11.2 8 -13.6 83 83 S 14 22 30.39 1029 10 16 N/A
5:35 am 05:35 Clear 12 -11 8 -13.5 82 82 S 15 24 30.39 1029 10 16 N/A
5:55 am 05:55 Clear 12 -11 8 -13.5 82 82 S 14 22 30.38 1029 10 16 N/A
6:15 am 06:15 Clear 12 -11 8 -13.5 82 82 S 14 22 30.38 1029 10 16 N/A
6:35 am 06:35 Clear 13 -10.8 8 -13.4 81 81 S 15 24 30.37 1028 10 16 N/A
6:55 am 06:55 Clear 12 -10.9 8 -13.4 82 82 S 12 19 30.38 1029 10 16 N/A
7:15 am 07:15 Clear 12 -11 8 -13.3 83 83 S 12 19 30.37 1029 10 16 N/A
7:35 am 07:35 Sunny 12 -11 8 -13.2 84 84 S 12 19 30.36 1028 10 16 N/A
7:55 am 07:55 Partly Cloudy 13 -10.6 9 -12.8 84 84 S 12 19 30.35 1028 10 16 N/A
8:15 am 08:15 Mostly Cloudy 15 -9.5 13 -10.7 91 91 S 12 19 30.33 1027 10 16 N/A
8:35 am 08:35 Partly Cloudy 17 -8.4 14 -10.2 87 87 S 13 20 30.32 1027 10 16 N/A
8:55 am 08:55 Sunny 18 -7.8 12 -10.9 79 79 S 16 26 30.31 1026 10 16 N/A
9:15 am 09:15 Sunny 20 -6.8 13 -10.5 75 75 S 20 31 30.29 1026 10 16 N/A
9:35 am 09:35 Sunny 22 -5.5 15 -9.6 73 73 S 20 31 30.26 1025 10 16 N/A
9:55 am 09:55 Sunny 24 -4.6 15 -9.2 71 71 S 22 35 30.25 1025 10 16 N/A
10:15 am 10:15 Sunny 26 -3.5 16 -8.7 68 68 SSW 20 31 30.23 1024 10 16 N/A
10:35 am 10:35 Sunny 28 -2.5 17 -8.3 65 65 SSW 24 39 30.21 1023 10 16 N/A
10:55 am 10:55 Sunny 29 -1.5 18 -8 62 62 S 28 44 30.18 1022 10 16 N/A
11:15 am 11:15 Sunny 31 -0.7 18 -7.6 60 60 SSW 28 44 30.17 1022 10 16 N/A
11:35 am 11:35 Sunny 32 -0.1 19 -7.1 60 60 SSW 25 41 30.16 1021 10 16 N/A
11:55 am 11:55 Sunny 33 0.6 20 -6.5 59 59 SSW 25 41 30.14 1021 10 16 N/A
12:15 pm 12:15 Sunny 34 1.3 21 -6 59 59 S 28 44 30.10 1019 10 16 N/A
12:35 pm 12:35 Sunny 35 1.9 22 -5.8 57 57 SSW 24 39 30.10 1019 10 16 N/A
12:55 pm 12:55 Sunny 37 2.5 22 -5.5 56 56 S 24 39 30.08 1019 10 16 N/A
1:15 pm 13:15 Sunny 37 2.8 23 -5.2 56 56 S 21 33 30.06 1018 10 16 N/A
1:35 pm 13:35 Sunny 38 3.4 23 -5 55 55 S 24 39 30.04 1017 10 16 N/A
1:55 pm 13:55 Sunny 39 3.7 23 -5 53 53 SSW 24 39 30.02 1017 10 16 N/A
2:15 pm 14:15 Sunny 40 4.2 23 -5 52 52 S 25 41 29.99 1015 10 16 N/A
2:35 pm 14:35 Sunny 41 4.8 24 -4.6 51 51 S 24 39 29.97 1015 10 16 N/A
2:55 pm 14:55 Sunny 41 5.1 24 -4.3 51 51 S 20 31 29.96 1014 10 16 N/A
3:15 pm 15:15 Sunny 42 5.7 25 -4 50 50 SSW 25 41 29.94 1014 10 16 N/A
3:35 pm 15:35 Sunny 42 5.7 25 -3.8 51 51 S 24 39 29.94 1014 10 16 N/A
3:55 pm 15:55 Sunny 43 6 25 -3.7 50 50 S 25 41 29.93 1013 10 16 N/A
4:15 pm 16:15 Sunny 43 6.3 26 -3.6 50 50 S 21 33 29.93 1013 10 16 N/A
4:35 pm 16:35 Sunny 43 6.3 25 -3.7 49 49 S 24 39 29.92 1013 10 16 N/A
4:55 pm 16:55 Sunny 43 6.3 25 -3.8 49 49 S 22 35 29.92 1013 10 16 N/A
5:15 pm 17:15 Sunny 43 6.1 25 -4 49 49 S 23 37 29.91 1013 10 16 N/A
5:35 pm 17:35 Sunny 42 5.6 25 -4 50 50 S 15 24 29.90 1013 10 16 N/A
5:55 pm 17:55 Sunny 41 5.1 25 -4.1 52 52 S 15 24 29.93 1013 10 16 N/A
6:15 pm 18:15 Clear 40 4.2 25 -4.1 55 55 S 20 31 29.92 1013 10 16 N/A
6:35 pm 18:35 Clear 38 3.5 24 -4.4 57 57 S 13 20 29.94 1014 10 16 N/A
6:55 pm 18:55 Clear 37 2.6 24 -4.5 60 60 S 12 19 29.95 1014 10 16 N/A
7:15 pm 19:15 Clear 36 2.4 24 -4.3 62 62 S 13 20 29.96 1015 10 16 N/A
7:35 pm 19:35 Clear 36 2.1 24 -4.3 63 63 S 14 22 29.97 1015 10 16 N/A
7:55 pm 19:55 Clear 36 2 24 -4.2 64 64 SSE 15 24 29.96 1014 10 16 N/A
8:15 pm 20:15 Clear 35 1.7 24 -4.3 65 65 SSE 16 26 29.96 1015 10 16 N/A
8:35 pm 20:35 Clear 35 1.5 24 -4.5 65 65 SSE 17 28 29.95 1014 10 16 N/A
8:55 pm 20:55 Clear 34 1.3 24 -4.5 66 66 SSE 14 22 29.96 1015 10 16 N/A
9:15 pm 21:15 Clear 34 1.2 24 -4.2 68 68 SE 12 19 29.96 1015 10 16 N/A
9:35 pm 21:35 Clear 34 0.9 24 -4.2 69 69 SE 12 19 29.97 1015 10 16 N/A
9:55 pm 21:55 Clear 33 0.5 24 -4.3 71 71 S 16 26 29.97 1015 10 16 N/A
10:15 pm 22:15 Clear 33 0.4 25 -4.1 72 72 S 14 22 29.97 1015 10 16 N/A
10:35 pm 22:35 Clear 32 0.2 25 -4.1 73 73 S 12 19 29.98 1015 10 16 N/A
10:55 pm 22:55 Clear 32 undefined 25 -4 75 75 S 9 15 29.99 1015 10 16 N/A
11:15 pm 23:15 Clear 32 -0.1 25 -4 75 75 S 13 20 29.97 1015 10 16 N/A
11:35 pm 23:35 Clear 31 -0.3 25 -4 76 76 S 12 19 29.96 1015 10 16 N/A
11:55 pm 23:55 Clear 30 -1 24 -4.2 79 79 S 8 13 29.99 1015 10 16 N/A

Powered by AerisWeather